Tracking 18980 objects as of 18-Feb-2018
HD Live streaming from Space Station
objects crossing your sky now

NOAA 16 DEB

Track NOAA 16 DEB now!
10-day predictions


NORAD ID: 42400
Int'l Code: 2000-055SU
Perigee: 845.4 km
Apogee: 883.2 km
Inclination: 98.8 °
Period: 102.1 minutes
Semi major axis: 7235 km
RCS: Unknown
Launch date: September 21, 2000
Source: United States (US)
Launch site: AIR FORCE WESTERN TEST RANGE (AFWTR)

Note: This is SATELLITE DEBRIS
aabbcc
Your satellite tracking list
Your tracking list is empty




NASA's NSSDC Master Catalog

Two Line Element Set (TLE):
1 42400U 00055SU  18047.13355444 +.00000536 +00000-0 +32341-3 0  9999
2 42400 098.8330 116.6155 0026116 090.4923 269.9240 14.10641410096291
Source of the keplerian elements: AFSPC